UGD720 FLKK-HCMM

Flight info

Callsign UGD720
Flight time N/A
Altitude 39000
Route OKDAR1A OKDAR DCT APGIK UL431 DV UL437 ITMAR DCT UDLOS OKMAV1
Aircraft B78X/H-SDE1E2E3FGHIJ2J3J4J5M1RWXY/LB1D1

Departure

Time 2026-04-28 18:08
Airport Kenneth Kaunda International Airport (FLKK)

Arrival

Time N/A
Airport Aden Adde International Airport (HCMM)
Time Latitude Longitude Altitude Speed Heading
2026-04-28 17:26 -15.32637 28.44525 3783 ft 0 kts
2026-04-28 17:51 -15.32636 28.44525 3783 ft 1 kts
2026-04-28 17:51 -15.32644 28.44525 3783 ft 6 kts
2026-04-28 17:51 -15.32671 28.44524 3784 ft 0 kts 357°
2026-04-28 17:52 -15.32666 28.44523 3784 ft 1 kts 353°
2026-04-28 17:52 -15.32671 28.44523 3784 ft 4 kts 348°
2026-04-28 17:52 -15.32700 28.44531 3790 ft 0 kts 300°
2026-04-28 17:55 -15.32699 28.44530 3789 ft 1 kts 300°
2026-04-28 17:55 -15.32695 28.44524 3787 ft 1 kts 307°
2026-04-28 17:55 -15.32686 28.44514 3794 ft 3 kts 310°
2026-04-28 17:56 -15.32674 28.44494 3785 ft 4 kts 298°
2026-04-28 17:56 -15.32666 28.44466 3790 ft 4 kts 284°
2026-04-28 17:56 -15.32665 28.44464 3791 ft 0 kts 284°
2026-04-28 18:02 -15.32664 28.44459 3791 ft 3 kts 284°
2026-04-28 18:02 -15.32655 28.44417 3789 ft 8 kts 280°
2026-04-28 18:02 -15.32647 28.44342 3789 ft 12 kts 271°
2026-04-28 18:02 -15.32680 28.44298 3791 ft 5 kts 201°
2026-04-28 18:03 -15.32723 28.44290 3791 ft 8 kts 188°
2026-04-28 18:03 -15.32776 28.44277 3788 ft 4 kts 214°
2026-04-28 18:03 -15.32784 28.44262 3790 ft 3 kts 245°
2026-04-28 18:03 -15.32789 28.44230 3792 ft 5 kts 265°
2026-04-28 18:04 -15.32788 28.44180 3789 ft 9 kts 272°
2026-04-28 18:04 -15.32781 28.44080 3793 ft 19 kts 276°
2026-04-28 18:04 -15.32764 28.43903 3796 ft 27 kts 275°
2026-04-28 18:04 -15.32747 28.43716 3794 ft 26 kts 275°
2026-04-28 18:05 -15.32744 28.43538 3792 ft 23 kts 255°
2026-04-28 18:05 -15.32807 28.43460 3797 ft 20 kts 211°
2026-04-28 18:05 -15.32828 28.43450 3797 ft 0 kts 201°
2026-04-28 18:06 -15.32829 28.43450 3797 ft 1 kts 201°
2026-04-28 18:06 -15.32849 28.43443 3794 ft 6 kts 198°
2026-04-28 18:06 -15.32908 28.43445 3795 ft 9 kts 154°
2026-04-28 18:07 -15.32930 28.43501 3793 ft 10 kts 88°
2026-04-28 18:07 -15.32948 28.43760 3795 ft 77 kts 96°
2026-04-28 18:07 -15.33022 28.44635 3790 ft 164 kts 95°
2026-04-28 18:07 -15.33115 28.46035 4060 ft 212 kts 88°
2026-04-28 18:08 -15.33089 28.47455 5517 ft 174 kts 87°
2026-04-28 18:08 -15.32867 28.48733 6195 ft 201 kts 63°
2026-04-28 18:08 -15.31729 28.49599 7132 ft 199 kts 15°
2026-04-28 18:08 -15.30467 28.49968 8533 ft 187 kts 18°
2026-04-28 18:09 -15.29249 28.50523 9408 ft 200 kts 28°
2026-04-28 18:09 -15.28114 28.51444 9772 ft 207 kts 45°
2026-04-28 18:09 -15.27212 28.52627 9856 ft 213 kts 54°
2026-04-28 18:09 -15.26297 28.53904 10196 ft 230 kts 52°
2026-04-28 18:10 -15.25284 28.55203 11031 ft 238 kts 50°
2026-04-28 18:10 -15.24223 28.56534 12003 ft 241 kts 51°
2026-04-28 18:10 -15.23151 28.57893 12929 ft 245 kts 51°
2026-04-28 18:10 -15.22070 28.59273 13808 ft 249 kts 51°
2026-04-28 18:11 -15.20969 28.60677 14690 ft 253 kts 51°
2026-04-28 18:11 -15.19852 28.62097 15527 ft 256 kts 51°
2026-04-28 18:11 -15.18715 28.63543 16397 ft 261 kts 51°
2026-04-28 18:11 -15.17560 28.65012 17271 ft 265 kts 51°
2026-04-28 18:12 -15.16389 28.66500 18118 ft 269 kts 51°
2026-04-28 18:12 -15.15189 28.68026 18638 ft 273 kts 51°
2026-04-28 18:12 -15.14377 28.69058 18774 ft 275 kts 51°
2026-04-28 18:12 -15.13164 28.70600 18758 ft 272 kts 51°
2026-04-28 18:13 -15.11983 28.72100 18752 ft 274 kts 51°
2026-04-28 18:13 -15.10759 28.73655 18868 ft 286 kts 51°
2026-04-28 18:13 -15.09453 28.75315 19169 ft 309 kts 51°
2026-04-28 18:13 -15.08048 28.77098 19780 ft 325 kts 51°
2026-04-28 18:14 -15.06610 28.78925 20623 ft 331 kts 51°
2026-04-28 18:14 -15.05140 28.80789 21463 ft 336 kts 51°
2026-04-28 18:14 -15.03648 28.82682 22276 ft 341 kts 51°
2026-04-28 18:14 -15.02143 28.84593 23055 ft 346 kts 51°
2026-04-28 18:15 -15.00610 28.86537 23788 ft 350 kts 51°
2026-04-28 18:15 -14.99059 28.88503 24521 ft 354 kts 51°
2026-04-28 18:15 -14.97491 28.90491 25212 ft 359 kts 51°
2026-04-28 18:15 -14.95903 28.92503 25884 ft 363 kts 51°
2026-04-28 18:16 -14.94298 28.94536 26550 ft 367 kts 51°
2026-04-28 18:16 -14.92697 28.96565 27173 ft 370 kts 51°
2026-04-28 18:16 -14.91060 28.98638 27785 ft 374 kts 51°
2026-04-28 18:16 -14.89383 29.00761 28401 ft 378 kts 51°
2026-04-28 18:17 -14.87735 29.02846 28986 ft 382 kts 51°
2026-04-28 18:17 -14.86042 29.04988 29545 ft 385 kts 51°
2026-04-28 18:17 -14.84339 29.07143 30114 ft 389 kts 51°
2026-04-28 18:17 -14.82626 29.09308 30646 ft 392 kts 51°
2026-04-28 18:18 -14.80885 29.11509 31177 ft 396 kts 51°
2026-04-28 18:18 -14.79135 29.13722 31687 ft 399 kts 51°
2026-04-28 18:18 -14.77367 29.15955 32184 ft 403 kts 51°
2026-04-28 18:18 -14.76187 29.17446 32519 ft 405 kts 51°
2026-04-28 18:19 -14.73811 29.20446 33149 ft 409 kts 51°
2026-04-28 18:19 -14.72003 29.22729 33607 ft 412 kts 51°
2026-04-28 18:19 -14.70176 29.25035 34057 ft 415 kts 51°
2026-04-28 18:19 -14.68348 29.27336 33244 ft 413 kts 52°
2026-04-28 18:20 -14.66526 29.29637 33916 ft 412 kts 51°
2026-04-28 18:20 -14.64716 29.31925 34470 ft 411 kts 51°
2026-04-28 18:20 -14.62925 29.34231 34934 ft 412 kts 56°
2026-04-28 18:20 -14.61247 29.36628 35351 ft 414 kts 54°
2026-04-28 18:21 -14.59524 29.39023 35760 ft 416 kts 53°
2026-04-28 18:21 -14.57814 29.41402 36143 ft 419 kts 54°
2026-04-28 18:21 -14.56084 29.43841 36529 ft 422 kts 54°
2026-04-28 18:21 -14.54345 29.46293 36896 ft 424 kts 54°
2026-04-28 18:22 -14.52585 29.48758 37255 ft 427 kts 53°
2026-04-28 18:22 -14.50818 29.51231 37606 ft 430 kts 53°
2026-04-28 18:22 -14.49043 29.53720 37956 ft 432 kts 53°
2026-04-28 18:22 -14.47268 29.56211 38281 ft 435 kts 53°
2026-04-28 18:23 -14.45459 29.58745 38610 ft 437 kts 53°
2026-04-28 18:23 -14.43645 29.61284 38888 ft 440 kts 53°
2026-04-28 18:23 -14.41822 29.63836 38997 ft 444 kts 53°
2026-04-28 18:23 -14.40004 29.66382 38997 ft 439 kts 53°
2026-04-28 18:24 -14.37000 29.70586 38992 ft 439 kts 53°
2026-04-28 18:24 -14.32757 29.76519 39002 ft 439 kts 53°
2026-04-28 18:25 -14.29153 29.81554 38995 ft 439 kts 53°
2026-04-28 18:26 -14.23735 29.89118 39120 ft 441 kts 53°
2026-04-28 18:26 -14.20108 29.94179 39015 ft 436 kts 53°
2026-04-28 18:27 -14.16485 29.99234 39004 ft 438 kts 53°
2026-04-28 18:27 -14.12865 30.04276 38995 ft 438 kts 53°
2026-04-28 18:28 -14.09269 30.09286 38993 ft 437 kts 53°
2026-04-28 18:28 -14.05649 30.14323 38992 ft 437 kts 53°
2026-04-28 18:29 -14.02034 30.19352 38987 ft 437 kts 53°
2026-04-28 18:29 -13.98410 30.24389 38985 ft 437 kts 53°
2026-04-28 18:30 -13.94788 30.29423 38982 ft 437 kts 53°
2026-04-28 18:30 -13.91189 30.34420 38981 ft 437 kts 53°
2026-04-28 18:31 -13.87568 30.39445 38975 ft 437 kts 53°
2026-04-28 18:31 -13.83952 30.44460 38979 ft 436 kts 53°
2026-04-28 18:32 -13.80253 30.49409 38979 ft 437 kts 52°
2026-04-28 18:32 -13.76534 30.54379 38983 ft 438 kts 52°
2026-04-28 18:33 -13.72781 30.59276 38985 ft 438 kts 52°
2026-04-28 18:33 -13.69014 30.64239 38987 ft 439 kts 52°
2026-04-28 18:34 -13.65248 30.69176 38992 ft 438 kts 52°
2026-04-28 18:34 -13.61491 30.74107 38991 ft 438 kts 52°
2026-04-28 18:35 -13.57726 30.79043 38993 ft 438 kts 52°
2026-04-28 18:35 -13.53986 30.83945 38998 ft 439 kts 52°
2026-04-28 18:36 -13.50212 30.88888 38999 ft 439 kts 52°
2026-04-28 18:36 -13.46440 30.93825 39001 ft 439 kts 51°
2026-04-28 18:37 -13.42657 30.98775 39005 ft 445 kts 51°
2026-04-28 18:37 -13.38748 31.03883 39007 ft 463 kts 51°
2026-04-28 18:38 -13.34768 31.09087 39007 ft 462 kts 51°
2026-04-28 18:38 -13.30802 31.14264 39000 ft 461 kts 51°
2026-04-28 18:39 -13.26835 31.19442 38997 ft 461 kts 51°
2026-04-28 18:39 -13.22861 31.24625 38998 ft 461 kts 51°
2026-04-28 18:40 -13.18914 31.29770 38988 ft 461 kts 51°
2026-04-28 18:40 -13.14942 31.34950 38991 ft 461 kts 52°
2026-04-28 18:41 -13.11262 31.40358 38977 ft 462 kts 54°
2026-04-28 18:41 -13.07591 31.45716 38980 ft 462 kts 54°
2026-04-28 18:42 -13.03919 31.51139 38974 ft 462 kts 54°
2026-04-28 18:42 -13.00238 31.56529 38966 ft 462 kts 54°
2026-04-28 18:43 -12.96556 31.61941 38968 ft 462 kts 54°
2026-04-28 18:43 -12.92833 31.67303 38966 ft 461 kts 49°
2026-04-28 18:44 -12.88752 31.72380 38959 ft 462 kts 50°
2026-04-28 18:44 -12.82633 31.80017 38955 ft 462 kts 50°
2026-04-28 18:45 -12.78542 31.85121 38944 ft 462 kts 50°
2026-04-28 18:45 -12.74483 31.90179 38943 ft 463 kts 50°
2026-04-28 18:46 -12.70396 31.95268 38948 ft 463 kts 50°
2026-04-28 18:46 -12.66303 32.00363 38943 ft 463 kts 50°
2026-04-28 18:47 -12.62205 32.05461 38945 ft 463 kts 50°
2026-04-28 18:47 -12.58111 32.10551 38945 ft 463 kts 50°
2026-04-28 18:48 -12.54016 32.15640 38944 ft 463 kts 50°
2026-04-28 18:48 -12.49916 32.20731 38933 ft 463 kts 50°
2026-04-28 18:49 -12.47195 32.24109 38945 ft 463 kts 50°
2026-04-28 18:49 -12.41709 32.30915 38946 ft 463 kts 50°
2026-04-28 18:50 -12.37631 32.35972 38952 ft 463 kts 50°
2026-04-28 18:50 -12.33528 32.41056 38951 ft 463 kts 50°
2026-04-28 18:51 -12.29425 32.46139 38952 ft 462 kts 50°
2026-04-28 18:51 -12.25329 32.51209 38949 ft 462 kts 50°
2026-04-28 18:52 -12.21233 32.56277 38948 ft 462 kts 50°
2026-04-28 18:52 -12.17278 32.61455 38959 ft 463 kts 53°
2026-04-28 18:53 -12.13394 32.66657 38968 ft 464 kts 52°
2026-04-28 18:53 -12.09529 32.71947 38972 ft 464 kts 53°
2026-04-28 18:54 -12.05645 32.77206 38974 ft 463 kts 52°
2026-04-28 18:54 -12.01768 32.82475 38981 ft 464 kts 53°
2026-04-28 18:55 -11.98545 32.86849 38982 ft 464 kts 52°
2026-04-28 18:55 -11.94002 32.93009 38987 ft 464 kts 53°
2026-04-28 18:56 -11.90116 32.98275 38991 ft 464 kts 52°
2026-04-28 18:56 -11.86212 33.03563 38996 ft 477 kts 53°
2026-04-28 18:57 -11.82136 33.09082 39001 ft 495 kts 53°
2026-04-28 18:57 -11.77945 33.14753 39011 ft 501 kts 52°
2026-04-28 18:58 -11.73768 33.20403 39010 ft 500 kts 52°
2026-04-28 18:58 -11.69580 33.26063 39007 ft 500 kts 52°
2026-04-28 18:59 -11.65215 33.31631 39027 ft 500 kts 47°
2026-04-28 18:59 -11.61308 33.35996 39024 ft 501 kts 47°
2026-04-28 19:00 -11.55839 33.42118 39026 ft 502 kts 47°
2026-04-28 19:00 -11.51137 33.47373 39035 ft 501 kts 47°
2026-04-28 19:01 -11.47205 33.51769 39036 ft 501 kts 47°
2026-04-28 19:01 -11.42506 33.57019 39036 ft 500 kts 47°
2026-04-28 19:02 -11.37845 33.62222 39043 ft 500 kts 47°
2026-04-28 19:02 -11.33409 33.67672 39051 ft 500 kts 50°
2026-04-28 19:03 -11.28982 33.73125 39058 ft 499 kts 50°
2026-04-28 19:03 -11.24598 33.78612 39060 ft 498 kts 50°
2026-04-28 19:04 -11.20231 33.84021 39063 ft 497 kts 50°
2026-04-28 19:04 -11.15820 33.89512 39059 ft 497 kts 50°
2026-04-28 19:05 -11.11459 33.94922 39058 ft 497 kts 50°
2026-04-28 19:05 -11.07071 34.00371 39051 ft 497 kts 50°
2026-04-28 19:06 -11.02683 34.05814 39053 ft 496 kts 50°
2026-04-28 19:06 -10.98294 34.11257 39045 ft 496 kts 50°
2026-04-28 19:07 -10.93918 34.16680 39032 ft 496 kts 50°
2026-04-28 19:07 -10.89541 34.22101 39028 ft 495 kts 50°
2026-04-28 19:08 -10.85193 34.27484 39018 ft 495 kts 50°
2026-04-28 19:08 -10.80821 34.32894 39004 ft 495 kts 50°
2026-04-28 19:09 -10.76442 34.38310 38998 ft 495 kts 50°
2026-04-28 19:09 -10.72065 34.43723 38996 ft 495 kts 50°
2026-04-28 19:10 -10.67699 34.49139 38998 ft 495 kts 50°
2026-04-28 19:10 -10.63363 34.54506 38996 ft 495 kts 50°
2026-04-28 19:11 -10.58963 34.59953 39000 ft 494 kts 50°
2026-04-28 19:11 -10.54601 34.65358 39012 ft 494 kts 51°
2026-04-28 19:12 -10.50341 34.70787 39015 ft 494 kts 51°
2026-04-28 19:12 -10.46022 34.76222 39021 ft 494 kts 51°
2026-04-28 19:13 -10.41723 34.81659 39024 ft 494 kts 51°
2026-04-28 19:13 -10.37401 34.87111 39033 ft 494 kts 51°
2026-04-28 19:14 -10.33113 34.92521 39041 ft 494 kts 51°
2026-04-28 19:14 -10.28805 34.97953 39042 ft 493 kts 51°
2026-04-28 19:15 -10.24499 35.03379 39044 ft 493 kts 51°
2026-04-28 19:15 -10.20921 35.07887 39045 ft 493 kts 51°
2026-04-28 19:16 -10.15908 35.14198 39050 ft 493 kts 51°
2026-04-28 19:16 -10.11604 35.19616 39046 ft 493 kts 51°
2026-04-28 19:17 -10.07287 35.25045 39049 ft 493 kts 51°
2026-04-28 19:17 -10.02971 35.30472 39052 ft 494 kts 51°
2026-04-28 19:18 -9.98642 35.35911 39047 ft 494 kts 51°
2026-04-28 19:18 -9.94340 35.41315 39050 ft 495 kts 51°
2026-04-28 19:19 -9.90003 35.46760 39048 ft 495 kts 51°
2026-04-28 19:19 -9.85676 35.52190 39050 ft 495 kts 51°
2026-04-28 19:20 -9.81333 35.57638 39047 ft 495 kts 51°
2026-04-28 19:20 -9.77004 35.63066 39039 ft 495 kts 51°
2026-04-28 19:21 -9.72667 35.68501 39039 ft 495 kts 51°
2026-04-28 19:21 -9.68329 35.73934 39034 ft 495 kts 51°
2026-04-28 19:22 -9.64721 35.78452 39029 ft 495 kts 51°
2026-04-28 19:22 -9.59679 35.84762 39023 ft 495 kts 51°
2026-04-28 19:23 -9.55338 35.90193 39019 ft 495 kts 51°
2026-04-28 19:23 -9.50999 35.95617 39011 ft 495 kts 51°
2026-04-28 19:24 -9.46667 36.01033 39012 ft 495 kts 51°
2026-04-28 19:24 -9.42349 36.06426 39008 ft 494 kts 51°
2026-04-28 19:25 -9.38023 36.11828 39005 ft 494 kts 51°
2026-04-28 19:25 -9.33684 36.17243 39005 ft 494 kts 51°
2026-04-28 19:26 -9.29348 36.22653 39009 ft 495 kts 51°
2026-04-28 19:26 -9.25010 36.28063 39006 ft 495 kts 51°
2026-04-28 19:27 -9.20662 36.33482 39009 ft 495 kts 51°
2026-04-28 19:27 -9.16317 36.38896 39009 ft 495 kts 51°
2026-04-28 19:28 -9.11973 36.44307 39009 ft 495 kts 51°
2026-04-28 19:28 -9.07631 36.49711 39008 ft 494 kts 51°
2026-04-28 19:29 -9.04268 36.53896 39005 ft 494 kts 51°
2026-04-28 19:29 -8.99152 36.60260 39010 ft 494 kts 51°
2026-04-28 19:30 -8.94819 36.65648 39009 ft 494 kts 51°
2026-04-28 19:30 -8.90469 36.71055 39006 ft 494 kts 51°
2026-04-28 19:31 -8.86127 36.76448 39006 ft 494 kts 51°
2026-04-28 19:31 -8.81789 36.81836 38998 ft 494 kts 51°
2026-04-28 19:32 -8.77448 36.87224 38997 ft 494 kts 51°
2026-04-28 19:32 -8.73135 36.92575 38987 ft 494 kts 51°
2026-04-28 19:33 -8.68799 36.97953 38990 ft 493 kts 51°
2026-04-28 19:33 -8.64466 37.03325 38982 ft 492 kts 51°
2026-04-28 19:34 -8.60136 37.08690 38982 ft 492 kts 51°
2026-04-28 19:34 -8.56540 37.13145 38980 ft 492 kts 51°